Zurück zum Katalog

ATLAS 5 CENTAUR DEB

LostHEO
NORAD 47339·DEBRIS·🇺🇸 United States

Gestartet Oct 17, 2018 von Cape Canaveral Space Force Station

Loading…

Nächste Überflüge (nächste 24 Stunden)

TLE

VeraltetSource: Space-Track

Epoche: May 17, 2025, 19:01 UTC

1 47339U 18079EL  25137.79247666 -.00000064  00000-0  00000-0 0  9997
2 47339  12.5844  65.6077 4409548 270.7069  40.6924  1.93072523 30794

Verfolge ATLAS 5 CENTAUR DEB in Echtzeit mit AllMySat

Download on the App Store